Regional Weather Roundup
Issued by NWS

Home | Current Version | Previous Version | Graphics & Text | Print | Product List | Glossary On
Versions: 1 2 3 4 5 6 7 8 9 10 11 12 13 14 15 16 17 18 19 20 21 22 23 24 25 26 27 28 29 30 31 32 33 34 35 36 37 38 39 40 41 42 43 44 45 46 47 48 49 50
646
ASUS43 KTOP 310808
RWRKS

WEATHER ROUNDUP FOR KANSAS
NATIONAL WEATHER SERVICE GOODLAND KS
300 AM CDT TUE MAY 31 2016

NOTE:  "FAIR" INDICATES FEW OR NO CLOUDS BELOW 12,000 FEET WITH NO
SIGNIFICANT WEATHER AND/OR OBSTRUCTIONS TO VISIBILITY.

KSZ001>006-013>018-027>032-041>047-310900-
NORTHWEST KANSAS

CITY           SKY/WX    TMP DP  RH WIND       PRES   REMARKS
GOODLAND       CLOUDY    50  48  93 NW6       29.97R
HAYS           CLOUDY    61  52  72 E7        29.89S
HILL CITY      CLOUDY    59  57  93 E3        29.92S
RUSSELL        CLOUDY    60  58  92 SE22      29.84F
$$

KSZ061>065-074>080-084>089-310900-
SOUTHWEST KANSAS

CITY           SKY/WX    TMP DP  RH WIND       PRES   REMARKS
DODGE CITY     RAIN      57  56  96 NE17      29.95F
ELKHART          N/A     63  61  94 E5          N/A
GARDEN CITY    CLOUDY    56  55  97 SW8       29.97R
GREAT BEND     CLOUDY    61  54  77 S6        29.95S
LIBERAL        CLOUDY    57  48  72 NE8       29.95F
PRATT          CLOUDY    63  61  94 S7        29.96R
$$

KSZ066>073-081>083-090>101-310900-
SOUTHEAST KANSAS

CITY           SKY/WX    TMP DP  RH WIND       PRES   REMARKS
CHANUTE        CLOUDY    63  61  93 S3        29.92F
COFFEYVILLE    PTCLDY    61  60  97 NE5       29.92F
HUTCHINSON     CLOUDY    64  62  93 SE7       29.93S
MEDICINE LODGE   N/A     66  63  90 SE7       29.91S
NEWTON         CLOUDY    61  55  82 S8        29.95F
PARSONS        CLOUDY    61  60  97 CALM      29.93F
WICHITA INTL   CLOUDY    65  62  90 SE6       29.92F
WICHITA JABRA  CLOUDY    62  61  96 SE5       29.93F
WICHITA MCCONL CLOUDY    64  61  91 SE5       29.93S
WINFIELD       CLOUDY    64  62  93 CALM      29.94S
$$

KSZ007>012-019>026-033>040-048>060-102>105-310900-
NORTHEAST KANSAS

CITY           SKY/WX    TMP DP  RH WIND       PRES   REMARKS
CONCORDIA      LGT RAIN  60  58  92 SE15      29.90F
EMPORIA        CLOUDY    61  59  93 CALM      29.94F
LAWRENCE       CLOUDY    61  60  97 CALM      29.94S
MANHATTAN      CLOUDY    67  60  78 SW7       29.95R
MARYSVILLE     CLOUDY    64  59  82 W8        29.93F
OLATHE IND     CLOUDY    61  60  97 CALM      29.95F
OLATHE EXE     CLEAR     61  59  93 CALM      29.95S
SALINA         LGT RAIN  63  60  90 E3        29.96F
TOPEKA BILLARD CLOUDY    65  61  87 CALM      29.94S
TOPEKA FORBES  CLOUDY    64  61  90 S3        29.94R
$$




USA.gov is the U.S. government's official web portal to all federal, state and local government web resources and services.